Regional Weather Roundup
Issued by NWS Sterling, VA

Home | Current Version | Previous Version | Graphics & Text | Print | Product List | Glossary On
Versions: 1 2 3 4 5 6 7 8 9 10 11 12 13 14 15 16 17 18 19 20 21 22 23 24 25 26 27 28
000
ASUS41 KLWX 182110
RWRLWX

REGIONAL WEATHER ROUNDUP
NATIONAL WEATHER SERVICE BALTIMORE MD/WASHINGTON DC
400 PM EST SAT FEB 18 2017

Note: "FAIR" indicates few or no clouds below 12,000 feet
with no significant weather and/or obstructions to visibility.
 TC=TEMPERATURE CELSIUS

 * =Non NWS site. Station does not report precipitation (e.g. rain,
    snow, etc.), thunder, or fog.

DCZ001-MDZ009-015-VAZ040>042-051-053>054-182200-
WASHINGTON METRO

CITY           SKY/WX    TMP DP  RH WIND       PRES   REMARKS
WASHINGTON NAT CLOUDY    63  35  35 S12       29.75S
DULLES         SUNNY     70  27  20 SW15G21   29.75R
ANDREWS AFB    SUNNY     67  33  27 S9G22     29.74S
FT BELVOIR     PTSUNNY   68  32  26 S5        29.75S
QUANTICO       MOSUNNY   56  30  37 SW13G18   29.77R
COLLEGE PARK*  SUNNY     68  32  26 S7        29.74R
LEESBURG*      SUNNY     73  34  23 SW10      29.75R
MANASSAS*      SUNNY     70  31  23 SW9       29.75S
GAITHERSBURG*  SUNNY     72  30  21 SW10      29.78R

$$

MDZ006>007-011-014-182200-
BALTIMORE METRO

CITY           SKY/WX    TMP DP  RH WIND       PRES   REMARKS
BWI AIRPORT    PTSUNNY   69  28  21 SW14G20   29.73S
MD SCIENCE CTR   N/A     69  28  21 MISG      29.73R
MARTIN STATE   PTSUNNY   59  41  51 SE7       29.74F
ANNAPOLIS      MOSUNNY   57  38  48 S14       29.74F
FORT MEADE*    SUNNY     68  30  24 SW12      29.76R

$$

MDZ012-015-019>023-182200-
MARYLAND EASTERN SHORE

CITY           SKY/WX    TMP DP  RH WIND       PRES   REMARKS
OCEAN CITY     CLOUDY    59  40  49 S10       29.79R
SALISBURY      CLOUDY    65  33  30 SW17      29.77S
BAY BRIDGE AP* MOSUNNY   61  37  41 S12       29.74S
CAMBRIDGE*     PTSUNNY   59  37  44 S6        29.77R

$$

MDZ017>025-182200-
SOUTHERN MARYLAND

CITY           SKY/WX    TMP DP  RH WIND       PRES   REMARKS
PATUXENT RIVER CLOUDY    66  40  38 S9        29.76S
ST INIGOES     MOSUNNY   66  39  37 S8        29.76S
LEONARDTOWN*   CLOUDY    68  34  28 SW12G17   29.78S

$$

MDZ003>005-182200-
NORTH CENTRAL MARYLAND

CITY           SKY/WX    TMP DP  RH WIND       PRES   REMARKS
FREDERICK*     SUNNY     72  34  25 W12       29.75R
HAGERSTOWN APT SUNNY     71  31  22 SW13G22   29.71S
WESTMINSTER*   SUNNY     72  34  25 SW15G21   29.72S

$$

MDZ501>502-182200-
WESTERN MARYLAND

CITY           SKY/WX    TMP DP  RH WIND       PRES   REMARKS
OAKLAND*       SUNNY     55  28  35 W16G24    29.80S
CUMBERLAND*    SUNNY     70  28  21 SW15      29.77S

$$

VAZ025>031-182200-
SHENANDOAH VALLEY

CITY           SKY/WX    TMP DP  RH WIND       PRES   REMARKS
WINCHESTER*    SUNNY     66  30  26 SW8       29.75R
FRONT ROYAL*   CLOUDY    68  32  26 SW8G16    29.75R
LURAY*         CLOUDY    66  34  30 S9        29.77S
NEW MARKET*    CLOUDY    65  30  27 SW5       29.77S
STAUNTON*      PTSUNNY   64  32  30 S6        29.81S
WAYNESBORO*    CLOUDY    65  28  24 SW7       29.81S

$$

WVZ021-048>050-054>055-182200-
EASTERN WEST VIRGINIA PANHANDLE

CITY           SKY/WX    TMP DP  RH WIND       PRES   REMARKS
MARTINSBURG    SUNNY     69  30  23 SW10      29.73R
PETERSBURG*    CLOUDY    70  32  24 CALM      29.77S

$$

VAZ036>039-050-182200-
CENTRAL FOOTHILLS

CITY           SKY/WX    TMP DP  RH WIND       PRES   REMARKS
CHARLOTTESVILL CLOUDY    71  30  21 S8        29.78R
CULPEPER*      MOSUNNY   71  32  23 SW8       29.77R
ORANGE*        CLOUDY    68  30  24 S8        29.78S
GORDONSVILLE*  CLOUDY    69  31  23 SW10G20   29.77S
WARRENTON*     MOSUNNY   72  18  13 SW10      29.75S

$$

VAZ055>057-182200-
NORTH AND CENTRAL PIEDMONT

CITY           SKY/WX    TMP DP  RH WIND       PRES   REMARKS
FREDERICKSBRG* PTSUNNY   71  35  26 SW12      29.76S
STAFFORD*      CLOUDY    70  29  22 SW6       29.81R

$$

NCZ024-NYZ072-PAZ021-071-VAZ022-071-182200-
OTHER REGIONAL OBSERVATIONS

CITY           SKY/WX    TMP DP  RH WIND       PRES   REMARKS
NEW YORK CITY  SUNNY     63  33  32 W7        29.69S
PHILADELPHIA   PTSUNNY   66  34  30 SW13      29.71F
PITTSBURGH     PTSUNNY   66  33  29 W14G24    29.74R
ROANOKE        CLOUDY    69  29  22 W9        29.85R
RICHMOND       PTSUNNY   71  29  21 SW12      29.79S
RALEIGH        CLOUDY    70  28  21 W17       29.88S

$$

ANZ530>537-182200-
MARINE OBSERVATIONS

STATION/POSITION TIME  TEMP    WIND        PRES
                       AIR SEA DIR/SP/G
                 (UTC) (F)     (DEG/KT/KT) (MB)
THOMAS PT LIGHT  2100   48 40  180/ 14/ 15   N/A
BALT KEY BRIDGE  2048          150/  7/  9 1006.6R
COVE POINT       2048   47     180/  8/ 10 1008.5R
LEWISETTA        2048   68 45  240/ 13/ 16 1007.5F
SOLOMONS ISLAND  2048   61 42  210/ 10/ 11   N/A
PINEY POINT      2048          100/  1/  2   N/A

$$





USA.gov is the U.S. government's official web portal to all federal, state and local government web resources and services.